Regional Weather Roundup
Issued by NWS

Home | Current Version | Previous Version | Text Only | Print | Product List | Glossary Off
Versions: 1 2 3 4 5 6 7 8 9 10 11 12 13 14 15 16 17 18 19 20 21 22 23 24 25 26 27 28 29 30 31 32 33 34 35 36 37 38 39 40 41 42 43 44 45 46 47 48 49 50

000
ASUS43 KDTX 030510
RWRMI
MICHIGAN HOURLY REGIONAL WEATHER ROUNDUP
NATIONAL WEATHER SERVICE DETROIT/PONTIAC MI
ISSUED BY NATIONAL WEATHER SERVICE GRAND RAPIDS MI
1200 AM EST SAT DEC 03 2016

NOTE: "FAIR" INDICATES FEW OR NO CLOUDS BELOW 12,000 FEET WITH NO
SIGNIFICANT WEATHER AND/OR OBSTRUCTION TO VISIBILITY.

MIZ047>049-052>055-059>063-066>070-074>076-081>083-030600-
SOUTHEAST LOWER MICHIGAN

CITY           SKY/WX    TMP DP  RH WIND       PRES   REMARKS
ADRIAN         CLOUDY    35  29  78 N3        30.27R
ALMA           CLOUDY    33  30  86 W7        30.25R WCI  27
ANN ARBOR      CLOUDY    35  27  72 W9        30.24R WCI  28
BAD AXE        CLOUDY    37  33  84 W8        30.18R WCI  31
DETROIT CITY   PTCLDY    35  28  75 W7        30.23S WCI  29
DETROIT        MOCLDY    34  27  75 W7        30.25R WCI  28
FLINT          CLOUDY    33  29  85 W7        30.24R WCI  27
GROSSE ILE     CLEAR     34  27  76 W5        30.24R WCI  30
HILLSDALE      CLOUDY    34  28  80 NW5       30.24R WCI  30
HOWELL         CLOUDY    35  28  77 W8        30.23S WCI  28

CITY           SKY/WX    TMP DP  RH WIND       PRES   REMARKS
LANSING        CLOUDY    35  26  69 W9        30.26R WCI  28
MASON          CLOUDY    34  29  81 W7        30.25S WCI  28
MONROE         CLOUDY    36  29  75 W12       30.25S WCI  28
MT. CLEMENS    MOCLDY    36  29  76 W10       30.20R WCI  28
PONTIAC        PTCLDY    32  27  81 W7        30.21R WCI  26
PORT HOPE        N/A     41  35  79 W12G22    30.15R
PORT HURON     CLOUDY    36  30  80 W7        30.20S WCI  30
TRI CITIES     MOCLDY    33  31  92 W10       30.23R WCI  25
YPSILANTI      CLOUDY    37  28  70 W8        30.25R WCI  31
$$
MIZ043>046-050>051-056>058-064>065-071>073-077>080-030600-
SOUTHWEST LOWER MICHIGAN

CITY           SKY/WX    TMP DP  RH WIND       PRES   REMARKS
BATTLE CREEK   CLOUDY    35  30  82 NW5       30.27R WCI  31
BENTON HARBOR  CLOUDY    38  27  64 W10       30.29R WCI  31
BIG RAPIDS     CLOUDY    36  30  78 W9        30.22R WCI  29
COLDWATER      CLOUDY    36  28  73 W3        30.27R
HOLLAND        CLOUDY    38  29  70 NW6       30.28R WCI  33
GRAND RAPIDS   CLOUDY    36  27  69 NW8       30.28R WCI  30
KALAMAZOO      CLOUDY    36  28  73 CALM      30.27S
MARSHALL       CLOUDY    35  30  83 CALM      30.26S
MOUNT PLEASANT MOCLDY    32  29  88 W5        30.23R WCI  28
MUSKEGON       CLOUDY    38  29  70 W5        30.28R WCI  34
STURGIS        CLOUDY    36  27  71 CALM      30.26S
$$
MIZ016>042-030600-
NORTHERN LOWER MICHIGAN

CITY           SKY/WX    TMP DP  RH WIND       PRES   REMARKS
ALPENA         PTCLDY    36  31  82 W5        30.16R WCI  32
BEAVER ISLAND  CLOUDY    37  32  82 NW8       30.20R WCI  31
BELLAIRE       CLOUDY    37  36  93 CALM      30.21R
CADILLAC       CLOUDY    34  32  92 W5        30.19R WCI  30
CHARLEVOIX     LGT RAIN  38  35  89 NW10      30.22R WCI  31
GAYLORD        CLOUDY    36  33  89 W3        30.16R
HOUGHTON LAKE  CLOUDY    36  33  89 NW9       30.19R WCI  29
MANISTEE       CLOUDY    38  32  79 W9        30.24R WCI  31
OSCODA         CLOUDY    38  33  82 W5        30.16R WCI  35
PELLSTON       CLOUDY    38  31  76 NW8       30.18R WCI  32
TRAVERSE CITY  CLOUDY    38  35  89 W6        30.21R WCI  33
LUDINGTON      CLOUDY    37  31  81 NW3       30.25R
$$
MIZ007>008-015-030600-
EASTERN UPPER MICHIGAN

CITY           SKY/WX    TMP DP  RH WIND       PRES   REMARKS
KINROSS        CLOUDY    33  32  96 W8        30.14R WCI  26
MACKINAC ISLAN CLOUDY    35  32  90 W9        30.16S WCI  27
NEWBERRY       CLOUDY    33  32  96 W8        30.16S WCI  26
S. S. MARIE    CLOUDY    35  33  92 NW8       30.13R WCI  29
$$
MIZ004>006-011>014-085-030600-
CENTRAL UPPER MICHIGAN

CITY           SKY/WX    TMP DP  RH WIND       PRES   REMARKS
MANISTIQUE     CLOUDY    34  32  92 NW6       30.19S WCI  29
ESCANABA       CLOUDY    34  30  85 W5        30.23R WCI  30
MENOMINEE      CLOUDY    35  28  75 W3        30.26R
SAWYER-GWINN   CLOUDY    32  28  86 NW5       30.19S WCI  27
$$
MIZ001>003-009>011-084-030600-
WESTERN UPPER MICHIGAN

CITY           SKY/WX    TMP DP  RH WIND       PRES   REMARKS
IRON MOUNTAIN  CLOUDY    32  26  78 W10       30.21R WCI  24
HOUGHTON       CLOUDY    32  28  85 W3        30.20S
COPPER HARBOR    N/A     35  28  75 NE13      30.21S WCI  26
IRONWOOD       CLOUDY    27  25  92 SW8       30.24R WCI  19
$$

ABBREVIATIONS USED IN REMARKS
   TC - TEMPERATURE IN CELSIUS
  WCI - WIND CHILL INDEX
   HX - HEAT INDEX
  VSB - VISIBILITY





USA.gov is the U.S. government's official web portal to all federal, state and local government web resources and services.